Location: Ku?niki
(51.4449°N, 17.8974°E)
Time: 15:07:56
(UTC+00:00)

Okean 1 Rocket - Pass Details

Date: 18 September 2020
Orbit: 606 x 635 km, 82.5° (Epoch: 21 October)

Event Time Altitude Azimuth Distance (km) Brightness Sun altitude
Exits shadow 18:14:11 20° 108° (ESE) 1,490 4.4 -12.9°
Maximum altitude 18:15:22 22° 86° (E) 1,405 4.3 -13.1°
Drops below altitude 10° 18:18:47 10° 36° (NE) 2,034 5.5 -13.6°
Sets 18:21:26 0° 22° (NNE) 2,948 6.5 -14.0°
